• In Österreich
  • Länderverzeichnis
  • Für 7 Tage
  • Wassertemperatur
  • Satellitenkarten
  • Wetterkarte
  • News
  • Widgets
  • user-avatar
    Anmelden

    Stündliche Wetter Prutz

    Heute, 18 August, Samstag

    Zeit Temperatur Niederschläge Wind Luftdruck Luftfeuchtigkeit
    00:00 +12°C° 0,1 mm 1 m/S 637 mmHg 93%
    01:00 +12°C° 0,1 mm 1 m/S 637 mmHg 93%
    02:00 +12°C° 0,1 mm 1 m/S 637 mmHg 93%
    03:00 +12°C° 0,1 mm 1 m/S 637 mmHg 93%
    04:00 +11°C° 0,1 mm 1 m/S 637 mmHg 93%
    05:00 +12°C° 0 mm 1 m/S 637 mmHg 91%
    06:00 +13°C° 0 mm 1 m/S 638 mmHg 89%
    07:00 +14°C° 0 mm 1 m/S 638 mmHg 87%
    08:00 +16°C° 0 mm 1 m/S 639 mmHg 80%
    09:00 +18°C° 0 mm 1 m/S 639 mmHg 73%
    10:00 +20°C° 0 mm 1 m/S 640 mmHg 66%
    11:00 +19°C° 0,3 mm 2 m/S 640 mmHg 65%
    12:00 +20°C° 0,3 mm 2 m/S 640 mmHg 65%
    13:00 +20°C° 0,3 mm 2 m/S 640 mmHg 65%
    14:00 +19°C° 1,2 mm 2 m/S 640 mmHg 70%
    15:00 +19°C° 1,2 mm 2 m/S 639 mmHg 75%
    16:00 +18°C° 1,2 mm 2 m/S 639 mmHg 81%
    17:00 +17°C° 1,2 mm 2 m/S 639 mmHg 85%
    18:00 +16°C° 1,2 mm 1 m/S 639 mmHg 90%
    19:00 +15°C° 1,2 mm 1 m/S 639 mmHg 94%
    20:00 +15°C° 0,7 mm 1 m/S 639 mmHg 95%
    21:00 +14°C° 0,7 mm 0 m/S 639 mmHg 95%
    22:00 +13°C° 0,7 mm 0 m/S 640 mmHg 96%
    23:00 +13°C° 0,3 mm 0 m/S 639 mmHg 96%

    Morgen, 19 August, Sonntag

    Zeit Temperatur Niederschläge Wind Luftdruck Luftfeuchtigkeit
    00:00 +13°C° 0,3 mm 0 m/S 639 mmHg 96%
    01:00 +12°C° 0,3 mm 0 m/S 639 mmHg 96%
    02:00 +12°C° 0,1 mm 0 m/S 639 mmHg 96%
    03:00 +12°C° 0,1 mm 0 m/S 639 mmHg 96%
    04:00 +11°C° 0,1 mm 0 m/S 638 mmHg 95%
    05:00 +12°C° 0,1 mm 0 m/S 639 mmHg 93%
    06:00 +13°C° 0,1 mm 0 m/S 639 mmHg 91%
    07:00 +14°C° 0,1 mm 0 m/S 640 mmHg 89%
    08:00 +15°C° 0,1 mm 0 m/S 640 mmHg 82%
    09:00 +17°C° 0,1 mm 0 m/S 641 mmHg 74%
    10:00 +21°C° 0,1 mm 1 m/S 641 mmHg 67%
    11:00 +21°C° 1,3 mm 1 m/S 641 mmHg 68%
    12:00 +21°C° 1,3 mm 1 m/S 641 mmHg 70%
    13:00 +21°C° 1,3 mm 1 m/S 640 mmHg 71%
    14:00 +21°C° 2,1 mm 1 m/S 640 mmHg 75%
    15:00 +20°C° 2,1 mm 1 m/S 640 mmHg 78%
    16:00 +19°C° 2,1 mm 1 m/S 639 mmHg 82%
    17:00 +18°C° 1,2 mm 1 m/S 639 mmHg 86%
    18:00 +16°C° 1,2 mm 1 m/S 639 mmHg 89%
    19:00 +15°C° 1,2 mm 0 m/S 639 mmHg 93%
    20:00 +14°C° 0,5 mm 0 m/S 639 mmHg 94%
    21:00 +14°C° 0,5 mm 0 m/S 639 mmHg 94%
    22:00 +14°C° 0,5 mm 1 m/S 639 mmHg 95%
    23:00 +14°C° 0,1 mm 1 m/S 639 mmHg 95%

    übermorgen, 20 August, Montag

    Zeit Temperatur Niederschläge Wind Luftdruck Luftfeuchtigkeit
    00:00 +13°C° 0,1 mm 1 m/S 639 mmHg 95%
    01:00 +12°C° 0,1 mm 0 m/S 638 mmHg 95%
    02:00 +13°C° 0 mm 1 m/S 638 mmHg 95%
    03:00 +12°C° 0 mm 1 m/S 638 mmHg 95%
    04:00 +12°C° 0 mm 1 m/S 637 mmHg 95%
    05:00 +13°C° 0 mm 1 m/S 638 mmHg 93%
    06:00 +14°C° 0 mm 1 m/S 638 mmHg 91%
    07:00 +15°C° 0 mm 1 m/S 638 mmHg 90%
    08:00 +16°C° 0 mm 1 m/S 639 mmHg 83%
    09:00 +19°C° 0 mm 1 m/S 639 mmHg 76%
    10:00 +21°C° 0 mm 1 m/S 640 mmHg 70%
    11:00 +21°C° 0,7 mm 1 m/S 640 mmHg 70%
    12:00 +21°C° 0,7 mm 1 m/S 640 mmHg 70%
    13:00 +20°C° 0,7 mm 2 m/S 639 mmHg 71%
    14:00 +20°C° 1,4 mm 2 m/S 639 mmHg 74%
    15:00 +20°C° 1,4 mm 2 m/S 639 mmHg 77%
    16:00 +19°C° 1,4 mm 2 m/S 638 mmHg 80%
    17:00 +18°C° 1,1 mm 2 m/S 638 mmHg 84%
    18:00 +18°C° 1,1 mm 1 m/S 638 mmHg 89%
    19:00 +16°C° 1,1 mm 1 m/S 638 mmHg 93%
    20:00 +15°C° 0,3 mm 1 m/S 638 mmHg 94%
    21:00 +15°C° 0,3 mm 1 m/S 638 mmHg 95%
    22:00 +14°C° 0,3 mm 1 m/S 638 mmHg 96%
    23:00 +14°C° 0 mm 1 m/S 638 mmHg 96%

    21 August, Dienstag

    Zeit Temperatur Niederschläge Wind Luftdruck Luftfeuchtigkeit
    00:00 +13°C° 0 mm 1 m/S 638 mmHg 96%
    01:00 +13°C° 0 mm 1 m/S 638 mmHg 96%
    02:00 +12°C° 0 mm 1 m/S 638 mmHg 95%
    03:00 +12°C° 0 mm 1 m/S 637 mmHg 95%
    04:00 +12°C° 0 mm 1 m/S 637 mmHg 95%
    05:00 +13°C° 0 mm 1 m/S 638 mmHg 93%
    06:00 +13°C° 0 mm 1 m/S 638 mmHg 90%
    07:00 +14°C° 0 mm 1 m/S 638 mmHg 88%
    08:00 +16°C° 0 mm 1 m/S 639 mmHg 79%
    09:00 +19°C° 0 mm 1 m/S 640 mmHg 71%
    10:00 +21°C° 0 mm 1 m/S 640 mmHg 62%
    11:00 +22°C° 0,1 mm 1 m/S 640 mmHg 59%
    12:00 +23°C° 0,1 mm 1 m/S 640 mmHg 57%
    13:00 +23°C° 0,1 mm 2 m/S 640 mmHg 54%
    14:00 +23°C° 0,4 mm 2 m/S 640 mmHg 58%
    15:00 +21°C° 0,4 mm 2 m/S 640 mmHg 61%
    16:00 +21°C° 0,4 mm 2 m/S 639 mmHg 64%
    17:00 +19°C° 0,5 mm 2 m/S 639 mmHg 73%
    18:00 +19°C° 0,5 mm 1 m/S 638 mmHg 81%
    19:00 +16°C° 0,5 mm 1 m/S 638 mmHg 89%
    20:00 +15°C° 0,2 mm 1 m/S 638 mmHg 91%
    21:00 +14°C° 0,2 mm 1 m/S 638 mmHg 93%
    22:00 +13°C° 0,2 mm 1 m/S 638 mmHg 95%
    23:00 +13°C° 0,1 mm 1 m/S 638 mmHg 95%

    22 August, Mittwoch

    Zeit Temperatur Niederschläge Wind Luftdruck Luftfeuchtigkeit
    00:00 +13°C° 0,1 mm 1 m/S 637 mmHg 94%
    01:00 +13°C° 0,1 mm 1 m/S 637 mmHg 94%
    02:00 +12°C° 0 mm 1 m/S 637 mmHg 94%
    03:00 +12°C° 0 mm 1 m/S 637 mmHg 94%
    04:00 +12°C° 0 mm 1 m/S 637 mmHg 94%
    05:00 +13°C° 0 mm 1 m/S 637 mmHg 91%
    06:00 +14°C° 0 mm 1 m/S 638 mmHg 88%
    07:00 +14°C° 0 mm 0 m/S 638 mmHg 86%
    08:00 +18°C° 0,1 mm 1 m/S 639 mmHg 79%
    09:00 +20°C° 0,1 mm 1 m/S 639 mmHg 72%
    10:00 +22°C° 0,1 mm 1 m/S 640 mmHg 65%
    11:00 +22°C° 0,8 mm 1 m/S 640 mmHg 65%
    12:00 +22°C° 0,8 mm 1 m/S 639 mmHg 65%
    13:00 +21°C° 0,8 mm 2 m/S 639 mmHg 66%
    14:00 +20°C° 2 mm 2 m/S 639 mmHg 71%
    15:00 +20°C° 2 mm 1 m/S 638 mmHg 77%
    16:00 +19°C° 2 mm 1 m/S 638 mmHg 82%
    17:00 +18°C° 2,5 mm 1 m/S 638 mmHg 86%
    18:00 +16°C° 2,5 mm 1 m/S 638 mmHg 89%
    19:00 +15°C° 2,5 mm 1 m/S 637 mmHg 93%
    20:00 +15°C° 0,8 mm 1 m/S 637 mmHg 93%
    21:00 +14°C° 0,8 mm 1 m/S 638 mmHg 93%
    22:00 +14°C° 0,8 mm 1 m/S 638 mmHg 93%
    23:00 +13°C° 0,2 mm 1 m/S 637 mmHg 93%

    23 August, Donnerstag

    Zeit Temperatur Niederschläge Wind Luftdruck Luftfeuchtigkeit
    00:00 +13°C° 0,2 mm 1 m/S 637 mmHg 93%
    01:00 +13°C° 0,2 mm 1 m/S 637 mmHg 92%
    02:00 +12°C° 0,1 mm 1 m/S 637 mmHg 92%
    03:00 +12°C° 0,1 mm 1 m/S 636 mmHg 92%
    04:00 +12°C° 0,1 mm 1 m/S 636 mmHg 92%
    05:00 +13°C° 0,1 mm 1 m/S 636 mmHg 90%
    06:00 +14°C° 0,1 mm 1 m/S 637 mmHg 88%
    07:00 +14°C° 0,1 mm 1 m/S 637 mmHg 86%
    08:00 +16°C° 0,1 mm 1 m/S 637 mmHg 78%
    09:00 +19°C° 0,1 mm 1 m/S 638 mmHg 70%
    10:00 +19°C° 0,1 mm 0 m/S 638 mmHg 62%
    11:00 +21°C° 0,4 mm 1 m/S 638 mmHg 61%
    12:00 +22°C° 0,4 mm 1 m/S 638 mmHg 60%
    13:00 +22°C° 0,4 mm 1 m/S 638 mmHg 59%
    14:00 +21°C° 1,2 mm 1 m/S 637 mmHg 65%
    15:00 +21°C° 1,2 mm 1 m/S 637 mmHg 70%
    16:00 +20°C° 1,2 mm 1 m/S 636 mmHg 76%
    17:00 +19°C° 1,7 mm 1 m/S 636 mmHg 82%
    18:00 +18°C° 1,7 mm 1 m/S 636 mmHg 87%
    19:00 +14°C° 1,7 mm 0 m/S 635 mmHg 92%
    20:00 +15°C° 1,1 mm 1 m/S 635 mmHg 92%
    21:00 +14°C° 1,1 mm 1 m/S 635 mmHg 93%
    22:00 +14°C° 1,1 mm 1 m/S 635 mmHg 93%
    23:00 +14°C° 0,3 mm 1 m/S 635 mmHg 93%
    Mehr zeigen